Regional Weather Roundup
Issued by NWS Green Bay, WI

Home | Current Version | Previous Version | Graphics & Text | Print | Product List | Glossary Off
Versions: 1 2 3 4 5 6 7 8 9 10 11 12 13 14 15 16 17 18 19 20 21 22 23 24 25 26 27 28 29 30 31 32 33 34 35 36 37 38 39 40 41 42 43 44 45 46 47 48 49 50

000
ASUS43 KGRB 170711
RWRGRB

NORTH-CENTRAL AND NORTHEAST WISCONSIN REGIONAL WEATHER ROUNDUP
NATIONAL WEATHER SERVICE GREEN BAY WI
100 AM CST WED JAN 17 2018

WIZ005-009-010>012-018-019-170800-
NORTH CENTRAL WISCONSIN

CITY           SKY/WX    TMP DP  RH WIND       PRES   REMARKS
IRONWOOD       MOCLDY     8   0  69 SW10      30.30F WCI  -6
MANITOWISH WTR FAIR       2   0  88 SW8       30.29F WCI -11
ARBOR VITAE    FAIR       4   1  85 SW6       30.30F WCI  -7
EAGLE RIVER    FAIR       3  -1  81 SW7       30.28F WCI  -9
LAND O LAKES   FAIR       6   2  84 SW5       30.29F WCI  -3
RHINELANDER    MOCLDY     3  -1  83 W8        30.32F WCI -10
PHILLIPS       FAIR      -1  -4  86 SW5       30.35F WCI -11
ANTIGO         FAIR       2  -1  87 W8        30.35F WCI -12
TOMAHAWK       FAIR       1  -3  83 W3        30.36F
MERRILL        FAIR       1  -3  83 W6        30.39F WCI -11
$$

WIZ013-073-170800-
NORTHEAST WISCONSIN

CITY           SKY/WX    TMP DP  RH WIND       PRES   REMARKS
IRON MOUNTAIN  MOCLDY     8   4  83 W5        30.30F WCI   0
MARINETTE      FAIR       7   4  87 W5        30.40F WCI  -2
OCONTO         FAIR       8   6  89 W8        30.42S WCI  -4
$$

WIZ017-030-035>037-045-170800-
CENTRAL WISCONSIN

CITY           SKY/WX    TMP DP  RH WIND       PRES   REMARKS
MEDFORD        FAIR      -3  -6  86 W8        30.38F WCI -18
WAUSAU         FAIR      -1  -4  87 W7        30.38F WCI -14
MOSINEE        FAIR       1  -2  85 W9        30.41F WCI -14
MARSHFIELD     FAIR      -2  -5  87 W8        30.42F WCI -17
WISC RAPIDS    FAIR       1  -4  79 W6        30.47F WCI -10
STEVENS POINT  FAIR       1  -3  85 W6        30.44F WCI -11
WAUPACA        FAIR       7   1  74 W6        30.46S WCI  -3
SHAWANO        FAIR      10   6  83 SW5       30.42F WCI   2
CLINTONVILLE   FAIR       9   1  72 W12       30.44S WCI  -6
WAUTOMA        FAIR       1  -3  83 W6        30.48F WCI -10
$$

WIZ038-039-048-051-170800-
FOX VALLEY

CITY           SKY/WX    TMP DP  RH WIND       PRES   REMARKS
NWS GREEN BAY  FAIR       9   4  80 SW7       30.44S WCI  -2
APPLETON       FAIR       7   1  78 W10       30.42F WCI  -8
OSHKOSH        FAIR       7   3  84 W7        30.45F WCI  -5
FOND DU LAC    FAIR       8   2  76 SW5       30.47S WCI   0
$$

WIZ022-050-052-170800-
EAST CENTRAL WISCONSIN

CITY           SKY/WX    TMP DP  RH WIND       PRES   REMARKS
EPHRAIM        FAIR       9   6  85 SW6       30.36F WCI  -1
WASHINGTON ISL FAIR      10   7  89 SW10      30.36F WCI  -4
STURGEON BAY   NOT AVBL
MANITOWOC      FAIR      11   7  84 W10       30.45F WCI  -3
SHEBOYGAN      FAIR      10   7  87 W9        30.45F WCI  -3
$$

LMZ563-521-522-541>543-170800-
LAKESHORE

STATION/POSITION TIME  TEMP    WIND        PRES    VSBY  WAVE
                       AIR SEA DIR/SP/G                  HT/PER
                 (UTC) (F)     (DEG/KT/KT) (MB)    (MI)  (FT/S)
SHEBOYGAN LKSHOR 0700   13     260/ 12/ 15 1032.6F
KEWAUNEE LKSHORE 0642          290/  4/  6   N/A
NORTHPORT PIER   0640    9     220/  3/  8 1028.4F
MENOMINEE LKSHOR 0648          220/  8/ 11   N/A
$$




USA.gov is the U.S. government's official web portal to all federal, state and local government web resources and services.